{"data":{"norad_id":61679,"epoch":"2026-09-21T00:38:07.236096Z","epoch_age_seconds":142731,"freshness":"FRESH","line1":"1 61679U 24193U   26264.02647264 -.00015396  00000+0 -44474-3 0  9990","line2":"2 61679  53.1593 262.9712 0001454 145.1581 214.9517 15.34448949106440","mean_motion":15.34448949,"eccentricity":0.0001454,"inclination_deg":53.1593,"raan_deg":262.9712,"arg_perigee_deg":145.1581,"mean_anomaly_deg":214.9517,"bstar":-0.00044474,"rev_number":10644,"period_min":93.844764333049,"perigee_km":461.5631203134,"apogee_km":463.55239434883,"semimajor_km":6840.6947573311,"source":"CELESTRAK","updated_at":"2026-09-22T09:00:49.403640Z"}}